Regional Weather Roundup
Issued by NWS

Home | Current Version | Previous Version | Graphics & Text | Print | Product List | Glossary On
Versions: 1 2 3 4 5 6 7 8 9 10 11 12 13 14 15 16 17 18 19 20 21 22 23 24 25 26 27 28 29 30 31 32 33 34 35 36 37 38 39 40 41 42 43 44 45 46 47 48 49 50
000
ASUS43 KIND 200209
RWRIN

WEATHER ROUNDUP FOR INDIANA
NATIONAL WEATHER SERVICE INDIANAPOLIS IN
900 PM EST SUN NOV 19 2017

NOTE: "FAIR" INDICATES FEW OR NO CLOUDS BELOW 12,000 FEET WITH NO
SIGNIFICANT WEATHER AND/OR OBSTRUCTIONS TO VISIBILITY.

* - STATION DOES NOT REPORT WEATHER SUCH AS PRECIPITATION OR FOG.

+ - STATION NOT QUALITY CONTROLLED BY THE NATIONAL WEATHER SERVICE.
    USE DATA WITH CAUTION...ESPECIALLY DEWPOINT AND RELATIVE
    HUMIDITY OBSERVATIONS.

INZ001>003-010>013-019-020-200300-
NORTHWEST INDIANA

CITY           SKY/WX    TMP DP  RH WIND       PRES   REMARKS
GARY /AIRPORT/ CLEAR     32  19  59 W14       30.10R WCI  22
KNOX *+        CLEAR     30  23  74 W9        30.08F WCI  22
LA PORTE +     PTCLDY    29  20  69 W10       30.07S WCI  20
MICHIGAN CITY+ CLEAR     30  21  69 SW8       30.07S WCI  23
MONTICELLO +   CLEAR     29  21  72 W7        30.11S WCI  22
RENSSELAER +   CLEAR     30  21  69 W9        30.11S WCI  22
VALPARAISO     CLEAR     30  21  69 W12       30.08S WCI  20

$$

LMZ046-743>745-200300-
SOUTHERN LAKE MICHIGAN

STATION/POSITION TIME  TEMP    WIND        PRES    WAVE
                       AIR SEA DIR/SP/G            HT
                 (UTC) (F)     (DEG/KT/KT) (MB)    (FT)
BURNS HARBOR     0140   33     240/ 13/ 17 1019.0R
MICHIGAN CITY    0140   35     240/ 21/ 22   N/A

$$

INZ004-005-014>016-021>024-200300-
NORTH CENTRAL INDIANA

CITY           SKY/WX    TMP DP  RH WIND       PRES   REMARKS
GOSHEN         CLEAR     29  20  69 SW12      30.05R WCI  19
LOGANSPORT +   CLEAR     28  23  80 W8        30.12R WCI  20
PERU/GRISSOM   CLEAR     29  23  78 W10       30.10R WCI  20
ROCHESTER +    CLEAR     32  25  74 W8        30.09S WCI  25
SOUTH BEND     CLEAR     28  20  71 SW8       30.05F WCI  20
WARSAW +       CLEAR     30  21  69 W9        30.07R WCI  22

$$

INZ006>009-017-018-025>027-200300-
NORTHEAST INDIANA

CITY           SKY/WX    TMP DP  RH WIND       PRES   REMARKS
AUBURN +       CLEAR     30  23  74 SW7       30.05R WCI  23
FORT WAYNE     PTCLDY    31  24  75 W13       30.07R WCI  21
HUNTINGTON +   CLEAR     29  23  78 W10       30.08S WCI  19
KENDALLVILLE + CLEAR     28  22  79 W10       30.04R WCI  19

$$

INZ028-029-035-036-043>045-051>053-200300-
WEST CENTRAL INDIANA

CITY           SKY/WX    TMP DP  RH WIND       PRES   REMARKS
CRAWFORDSVL +  CLEAR     27  21  80 SW7       30.10F WCI  19
GREENCASTLE +  CLEAR     28  21  74 CALM      30.15R
LAFAYETTE      CLEAR     28  23  81 W7        30.13R WCI  21
TERRE HAUTE    CLEAR     28  22  78 SW3       30.17S

$$

INZ030>032-037>040-046>048-054>057-064-065-200300-
CENTRAL INDIANA

CITY           SKY/WX    TMP DP  RH WIND       PRES   REMARKS
CP ATTERBURY + CLEAR     30  23  74 CALM      30.17R
COLUMBUS       CLEAR     28  21  74 SW5       30.17R WCI  23
FISHERS *+     CLEAR     28  27  93 W5        30.14R WCI  23
FRANKFORT +    CLEAR     32  26  81 W10       30.13F WCI  23
GREENWOOD *+   CLEAR     32  26  77 W7        30.15R WCI  26
INDIANAPOLIS   CLEAR     27  22  81 SW8       30.14R WCI  19
-EAGLE CREEK   CLEAR     30  21  69 W6        30.13R WCI  24
KOKOMO +       CLEAR     30  24  78 W12       30.12R WCI  20
MARION +       CLEAR     30  25  82 W10G17    30.11R WCI  21
MT COMFORT *+  CLEAR     28  25  86 W8        30.13R WCI  20
SHELBYVILLE    CLEAR     29  22  75 W7        30.15R WCI  22
ZIONSVILLE +   CLEAR     28  22  77 W8        30.13R WCI  20

$$

INZ033-034-041-042-049-050-058-059-200300-
EAST CENTRAL INDIANA

CITY           SKY/WX    TMP DP  RH WIND       PRES   REMARKS
MUNCIE         CLEAR     30  23  75 W10       30.11R WCI  21
RICHMOND +     CLEAR     27  23  86 SW7       30.11R WCI  19

$$

INZ060-061-067>069-081>083-085>088-200300-
SOUTHWEST INDIANA

CITY           SKY/WX    TMP DP  RH WIND       PRES   REMARKS
EVANSVILLE     CLEAR     32  22  66 CALM      30.23R
HUNTINGBURG +  CLEAR     31  23  72 W3        30.21S
WASHINGTON +   CLEAR     31  21  67 W5        30.20S WCI  26

$$

INZ062-063-066-070>080-084-089>092-200300-
SOUTH CENTRAL AND SOUTHEAST INDIANA

CITY           SKY/WX    TMP DP  RH WIND       PRES   REMARKS
BEDFORD +      CLEAR     30  21  69 SW5       30.17R WCI  25
BLOOMINGTON    CLEAR     30  21  69 W5        30.16R WCI  25
MADISON *+     CLEAR     30  27  86 CALM      30.19R
NORTH VERNON + CLEAR     28  23  80 W6        30.17R WCI  22
SEYMOUR +      CLEAR     28  21  74 SW6       30.18R WCI  22

$$





USA.gov is the U.S. government's official web portal to all federal, state and local government web resources and services.